Time,TemperatureF,DewpointF,PressureIn,WindDirection,WindDirectionDegrees,WindSpeedMPH,WindSpeedGustMPH,Humidity,HourlyPrecipIn,Conditions,Clouds,dailyrainin,SoftwareType,DateUTC
2013-05-25 12:45:00,80.4,68.0,30.17,WNW,292,1.0,1.0,66,0.00,CLR,,0.00,WeatherDisplay:10.37,2013-05-25 17:45:00,
2013-05-25 13:00:00,89.2,47.7,30.16,North,356,3.0,4.0,24,0.00,CLR,,0.00,WeatherDisplay:10.37,2013-05-25 18:00:00,
2013-05-25 13:15:00,91.8,47.5,30.15,NNW,346,2.0,5.0,22,0.00,CLR,,0.00,WeatherDisplay:10.37,2013-05-25 18:15:00,
2013-05-25 13:30:00,90.7,46.6,30.15,NW,324,3.0,6.0,22,0.00,CLR,,0.00,WeatherDisplay:10.37,2013-05-25 18:30:00,
2013-05-25 13:45:00,93.2,46.2,30.14,SSW,205,2.0,6.0,20,0.00,CLR,,0.00,WeatherDisplay:10.37,2013-05-25 18:45:00,
2013-05-25 14:00:00,91.2,47.0,30.13,SSW,206,2.0,5.0,22,0.00,CLR,,0.00,WeatherDisplay:10.37,2013-05-25 19:00:00,
2013-05-25 14:15:00,92.7,45.7,30.13,WSW,240,1.0,5.0,20,0.00,CLR,,0.00,WeatherDisplay:10.37,2013-05-25 19:15:00,
2013-05-25 14:30:00,90.9,45.5,30.12,SSW,213,2.0,8.0,21,0.00,CLR,,0.00,WeatherDisplay:10.37,2013-05-25 19:30:00,
2013-05-25 14:45:00,94.4,49.7,30.11,WNW,285,0.0,5.0,22,0.00,CLR,,0.00,WeatherDisplay:10.37,2013-05-25 19:45:00,
2013-05-25 15:00:00,92.0,47.7,30.11,WNW,294,3.0,6.0,22,0.00,CLR,,0.00,WeatherDisplay:10.37,2013-05-25 20:00:00,
2013-05-25 15:15:00,93.6,46.5,30.10,NW,325,1.0,6.0,20,0.00,CLR,,0.00,WeatherDisplay:10.37,2013-05-25 20:15:00,
2013-05-25 15:30:00,96.2,45.8,30.10,WSW,253,1.0,3.0,18,0.00,CLR,,0.00,WeatherDisplay:10.37,2013-05-25 20:30:00,
2013-05-25 15:45:00,94.8,46.1,30.10,WNW,285,0.0,5.0,19,0.00,CLR,,0.00,WeatherDisplay:10.37,2013-05-25 20:45:00,
2013-05-25 16:00:00,92.2,45.4,30.09,NNW,340,2.0,5.0,20,0.00,CLR,,0.00,WeatherDisplay:10.37,2013-05-25 21:00:00,
2013-05-25 16:15:00,94.3,47.1,30.09,West,261,1.0,6.0,20,0.00,CLR,,0.00,WeatherDisplay:10.37,2013-05-25 21:15:00,
2013-05-25 16:30:00,91.6,47.4,30.09,WNW,282,5.0,5.0,22,0.00,CLR,,0.00,WeatherDisplay:10.37,2013-05-25 21:30:00,
2013-05-25 16:45:00,92.3,46.7,30.10,NE,46,5.0,5.0,21,0.00,CLR,,0.00,WeatherDisplay:10.37,2013-05-25 21:45:00,
2013-05-25 17:00:00,89.4,50.0,30.09,South,179,5.0,6.0,26,0.00,CLR,,0.00,WeatherDisplay:10.37,2013-05-25 22:00:00,
2013-05-25 17:15:00,88.7,49.4,30.10,SSW,196,6.0,6.0,26,0.00,CLR,,0.00,WeatherDisplay:10.37,2013-05-25 22:15:00,
2013-05-25 17:30:00,88.9,50.6,30.10,WSW,248,3.0,6.0,27,0.00,CLR,,0.00,WeatherDisplay:10.37,2013-05-25 22:30:00,
2013-05-25 17:45:00,85.7,51.6,30.11,SW,228,3.0,6.0,31,0.00,CLR,,0.00,WeatherDisplay:10.37,2013-05-25 22:45:00,
2013-05-25 18:00:00,84.3,52.0,30.11,South,190,2.0,6.0,33,0.00,CLR,,0.00,WeatherDisplay:10.37,2013-05-25 23:00:00,
2013-05-25 18:15:00,84.7,52.4,30.11,SSW,211,5.0,5.0,33,0.00,CLR,,0.00,WeatherDisplay:10.37,2013-05-25 23:15:00,
2013-05-25 18:30:00,82.4,52.8,30.11,SSE,162,2.0,6.0,36,0.00,CLR,,0.00,WeatherDisplay:10.37,2013-05-25 23:30:00,
2013-05-25 18:45:00,82.4,52.8,30.11,South,180,1.0,1.0,36,0.00,CLR,,0.00,WeatherDisplay:10.37,2013-05-25 23:45:00,
2013-05-25 19:00:00,82.4,52.8,30.11,South,180,1.0,1.0,36,0.00,CLR,,0.00,WeatherDisplay:10.37,2013-05-26 00:00:00,
2013-05-25 19:15:00,82.4,52.8,30.11,South,180,1.0,1.0,36,0.00,CLR,,0.00,WeatherDisplay:10.37,2013-05-26 00:15:00,
2013-05-25 19:30:00,82.4,52.8,30.11,South,180,1.0,1.0,36,0.00,CLR,,0.00,WeatherDisplay:10.37,2013-05-26 00:30:00,
2013-05-25 19:45:00,82.4,52.8,30.11,South,180,1.0,1.0,36,0.00,CLR,,0.00,WeatherDisplay:10.37,2013-05-26 00:45:00,
2013-05-25 20:00:00,82.4,52.8,30.11,South,180,1.0,1.0,36,0.00,CLR,,0.00,WeatherDisplay:10.37,2013-05-26 01:00:00,
2013-05-25 20:15:00,82.4,52.8,30.11,South,180,1.0,1.0,36,0.00,CLR,,0.00,WeatherDisplay:10.37,2013-05-26 01:15:00,
2013-05-25 20:30:00,82.4,52.8,30.11,South,180,1.0,1.0,36,0.00,CLR,,0.00,WeatherDisplay:10.37,2013-05-26 01:30:00,
2013-05-25 20:45:00,82.4,52.8,30.11,South,180,1.0,1.0,36,0.00,CLR,,0.00,WeatherDisplay:10.37,2013-05-26 01:45:00,
2013-05-25 21:00:00,82.4,52.8,30.11,South,180,1.0,1.0,36,0.00,CLR,,0.00,WeatherDisplay:10.37,2013-05-26 02:00:00,
2013-05-25 21:15:00,82.4,52.8,30.11,South,180,1.0,1.0,36,0.00,CLR,,0.00,WeatherDisplay:10.37,2013-05-26 02:15:00,
2013-05-25 21:30:00,82.4,52.8,30.11,South,180,1.0,1.0,36,0.00,CLR,,0.00,WeatherDisplay:10.37,2013-05-26 02:30:00,
2013-05-25 21:45:00,82.4,52.8,30.11,South,180,1.0,1.0,36,0.00,CLR,,0.00,WeatherDisplay:10.37,2013-05-26 02:45:00,
2013-05-25 22:00:00,82.4,52.8,30.11,South,180,1.0,1.0,36,0.00,CLR,,0.00,WeatherDisplay:10.37,2013-05-26 03:00:00,
2013-05-25 22:15:00,82.4,52.8,30.11,South,180,1.0,1.0,36,0.00,CLR,,0.00,WeatherDisplay:10.37,2013-05-26 03:15:00,
2013-05-25 22:30:00,82.4,52.8,30.11,South,180,1.0,1.0,36,0.00,CLR,,0.00,WeatherDisplay:10.37,2013-05-26 03:30:00,
2013-05-25 22:45:00,82.4,52.8,30.11,South,180,1.0,1.0,36,0.00,CLR,,0.00,WeatherDisplay:10.37,2013-05-26 03:45:00,
2013-05-25 23:00:00,82.4,52.8,30.11,South,180,1.0,1.0,36,0.00,CLR,,0.00,WeatherDisplay:10.37,2013-05-26 04:00:00,
2013-05-25 23:30:00,61.1,54.9,30.14,West,263,0.0,0.0,80,0.00,CLR,,0.00,WeatherDisplay:10.37,2013-05-26 04:30:00,
2013-05-25 23:45:00,60.5,54.3,30.14,West,274,0.0,0.0,80,0.00,CLR,,0.00,WeatherDisplay:10.37,2013-05-26 04:45:00,